FW0258 Weather Reports


Display with metric or nautical units.
time (UTC)temp
F
wind
direction
speed
MPH
gust
MPH
rain 1hr
in
rain 24hr
in
rain mn
in
humidity
%
barometer
mb
20200710224824 91 180 2.0 5.0 0.00 0.00 0.00 23 1005.2
20200710224306 91 180 2.0 5.0 0.00 0.00 0.00 23 1005.2
20200710223806 92 180 2.0 5.0 0.00 0.00 0.00 22 1005.2
20200710223305 92 180 1.0 3.0 0.00 0.00 0.00 24 1005.4
20200710222807 92 180 1.0 3.0 0.00 0.00 0.00 24 1005.8
20200710222308 92 180 1.0 3.0 0.00 0.00 0.00 24 1005.8
20200710221806 92 194 2.0 3.0 0.00 0.00 0.00 24 1005.8
20200710221308 91 180 2.0 3.0 0.00 0.00 0.00 25 1005.8
20200710220825 92 193 2.0 3.0 0.00 0.00 0.00 26 1005.8
20200710220306 92 225 2.0 3.0 0.00 0.00 0.00 26 1005.8
20200710215806 91 213 2.0 3.0 0.00 0.00 0.00 26 1005.8
20200710215306 92 180 1.0 3.0 0.00 0.00 0.00 26 1005.8
20200710214806 92 180 1.0 3.0 0.00 0.00 0.00 26 1005.2
20200710214308 92 180 2.0 3.0 0.00 0.00 0.00 27 1005.2
20200710213806 92 180 2.0 5.0 0.00 0.00 0.00 27 1005.2
20200710213306 92 180 2.0 5.0 0.00 0.00 0.00 26 1005.2
20200710212805 93 180 2.0 5.0 0.00 0.00 0.00 27 1005.2
20200710212306 92 180 1.0 3.0 0.00 0.00 0.00 26 1005.2
20200710211806 92 213 2.0 3.0 0.00 0.00 0.00 27 1005.2
20200710211310 91 180 2.0 3.0 0.00 0.00 0.00 28 1005.2
20200710210806 91 180 2.0 3.0 0.00 0.00 0.00 28 1005.2
20200710210305 90 180 1.0 3.0 0.00 0.00 0.00 28 1005.2
20200710205806 89 0 1.0 3.0 0.00 0.00 0.00 28 1005.8
20200710204806 92 180 1.0 3.0 0.00 0.00 0.00 27 1005.2
20200710204306 90 180 1.0 3.0 0.00 0.00 0.00 28 1005.2
20200710203805 91 180 1.0 3.0 0.00 0.00 0.00 27 1005.2
20200710203305 92 180 1.0 3.0 0.00 0.00 0.00 27 1005.2
20200710202807 91 0 1.0 2.0 0.00 0.00 0.00 27 1005.2
20200710202309 90 0 1.0 2.0 0.00 0.00 0.00 27 1005.2
20200710201807 89 180 1.0 2.0 0.00 0.00 0.00 28 1005.4
20200710201314 88 180 1.0 3.0 0.00 0.00 0.00 29 1005.8
20200710200808 88 0 1.0 3.0 0.00 0.00 0.00 29 1005.8
20200710200305 88 0 1.0 3.0 0.00 0.00 0.00 29 1005.8
20200710195808 87 180 1.0 2.0 0.00 0.00 0.00 30 1005.8
20200710195306 87 180 1.0 2.0 0.00 0.00 0.00 31 1005.8
20200710194806 87 180 1.0 2.0 0.00 0.00 0.00 30 1005.8
20200710194305 89 135 1.0 2.0 0.00 0.00 0.00 29 1005.8
20200710193810 89 114 1.0 3.0 0.00 0.00 0.00 30 1005.8
20200710193308 88 0 1.0 3.0 0.00 0.00 0.00 29 1005.8
20200710192806 88 0 1.0 3.0 0.00 0.00 0.00 30 1005.8
20200710192306 88 180 1.0 3.0 0.00 0.00 0.00 29 1005.2
20200710191806 87 180 1.0 3.0 0.00 0.00 0.00 29 1005.8
20200710191306 87 180 1.0 3.0 0.00 0.00 0.00 29 1005.8
20200710190805 86 0 1.0 3.0 0.00 0.00 0.00 29 1005.8
20200710190312 88 180 1.0 3.0 0.00 0.00 0.00 29 1005.2
20200710185805 87 225 1.0 2.0 0.00 0.00 0.00 29 1005.2
20200710185305 86 225 1.0 2.0 0.00 0.00 0.00 30 1005.8
20200710184805 86 180 1.0 2.0 0.00 0.00 0.00 29 1005.8
20200710184308 86 180 1.0 2.0 0.00 0.00 0.00 30 1005.8
20200710183809 85 180 1.0 2.0 0.00 0.00 0.00 30 1005.8
20200710183307 84 180 1.0 2.0 0.00 0.00 0.00 30 1005.8
20200710182805 83 180 1.0 2.0 0.00 0.00 0.00 32 1005.8
20200710182309 83 180 1.0 2.0 0.00 0.00 0.00 31 1005.8
20200710181807 83 180 1.0 2.0 0.00 0.00 0.00 32 1005.8
20200710181307 83 180 1.0 2.0 0.00 0.00 0.00 32 1005.8
20200710180805 82 180 1.0 2.0 0.00 0.00 0.00 33 1005.8
20200710180306 82 180 1.0 2.0 0.00 0.00 0.00 34 1005.8
20200710175805 82 180 1.0 3.0 0.00 0.00 0.00 34 1005.8
20200710175306 81 180 1.0 3.0 0.00 0.00 0.00 35 1005.8
20200710174805 81 180 1.0 3.0 0.00 0.00 0.00 34 1005.8
20200710174308 80 180 1.0 2.0 0.00 0.00 0.00 36 1005.8
20200710173805 79 225 1.0 3.0 0.00 0.00 0.00 38 1005.8
20200710173305 78 212 1.0 3.0 0.00 0.00 0.00 38 1005.8
20200710172805 78 180 2.0 3.0 0.00 0.00 0.00 39 1005.2
20200710172305 77 180 1.0 3.0 0.00 0.00 0.00 39 1005.2
20200710171805 77 180 1.0 3.0 0.00 0.00 0.00 39 1005.2
20200710171305 77 180 1.0 3.0 0.00 0.00 0.00 40 1005.2
20200710170805 76 180 1.0 2.0 0.00 0.00 0.00 40 1005.2
20200710170306 75 180 1.0 3.0 0.00 0.00 0.00 42 1005.2
20200710165805 75 180 1.0 3.0 0.00 0.00 0.00 42 1005.2
20200710165305 74 180 1.0 3.0 0.00 0.00 0.00 43 1005.2
20200710164805 73 180 1.0 3.0 0.00 0.00 0.00 44 1005.2
20200710164305 72 180 1.0 3.0 0.00 0.00 0.00 45 1005.2
20200710163805 72 180 1.0 3.0 0.00 0.00 0.00 44 1005.2
20200710163306 71 180 1.0 3.0 0.00 0.00 0.00 46 1005.2
20200710162807 70 180 1.0 2.0 0.00 0.00 0.00 47 1005.2
20200710162305 70 180 1.0 2.0 0.00 0.00 0.00 50 1005.2
20200710161806 69 180 1.0 2.0 0.00 0.00 0.00 52 1005.2
20200710161306 68 180 1.0 2.0 0.00 0.00 0.00 52 1005.2
20200710160805 68 180 1.0 2.0 0.00 0.00 0.00 53 1005.2
20200710160308 67 180 1.0 1.0 0.00 0.00 0.00 53 1005.2
20200710155806 67 180 0.0 1.0 0.00 0.00 0.00 53 1005.2
20200710155306 66 180 1.0 2.0 0.00 0.00 0.00 54 1005.2
20200710154805 66 180 1.0 2.0 0.00 0.00 0.00 55 1005.2
20200710154306 65 180 1.0 2.0 0.00 0.00 0.00 57 1005.2
20200710153808 65 225 1.0 1.0 0.00 0.00 0.00 57 1005.2
20200710153306 64 270 1.0 2.0 0.00 0.00 0.00 59 1005.2
20200710152805 63 180 1.0 2.0 0.00 0.00 0.00 60 1005.2
20200710152307 63 180 1.0 2.0 0.00 0.00 0.00 60 1005.2
20200710151813 62 192 0.0 2.0 0.00 0.00 0.00 60 1005.2
20200710151306 62 225 0.0 1.0 0.00 0.00 0.00 61 1005.2
20200710150805 61 180 1.0 1.0 0.00 0.00 0.00 62 1005.2
20200710150305 61 225 0.0 1.0 0.00 0.00 0.00 62 1005.2
20200710145807 60 225 0.0 1.0 0.00 0.00 0.00 64 1005.2
20200710145306 60 225 0.0 1.0 0.00 0.00 0.00 64 1005.2
20200710144807 59 213 0.0 1.0 0.00 0.00 0.00 64 1005.2
20200710144305 59 135 0.0 1.0 0.00 0.00 0.00 65 1005.2
20200710143807 58 135 0.0 1.0 0.00 0.00 0.00 65 1005.2
20200710143305 58 180 0.0 1.0 0.00 0.00 0.00 65 1005.2
20200710142805 58 180 0.0 1.0 0.00 0.00 0.00 65 1005.2
20200710142306 57 180 0.0 1.0 0.00 0.00 0.00 66 1005.2
20200710141804 57 225 0.0 1.0 0.00 0.00 0.00 68 1005.2
20200710141305 56 225 1.0 1.0 0.00 0.00 0.00 68 1005.2
20200710140805 56 225 1.0 2.0 0.00 0.00 0.00 70 1005.2
20200710140309 56 225 1.0 2.0 0.00 0.00 0.00 70 1005.2
20200710135814 56 225 1.0 2.0 0.00 0.00 0.00 68 1005.2
20200710135306 56 225 0.0 1.0 0.00 0.00 0.00 67 1005.2
20200710134847 56 225 1.0 1.0 0.00 0.00 0.00 68 1005.2
20200710134305 56 225 1.0 1.0 0.00 0.00 0.00 70 1005.2
20200710133805 56 225 1.0 1.0 0.00 0.00 0.00 69 1005.2
20200710133305 56 225 0.0 1.0 0.00 0.00 0.00 69 1005.2
20200710132811 56 225 0.0 1.0 0.00 0.00 0.00 68 1005.2
20200710132307 56 225 0.0 1.0 0.00 0.00 0.00 69 1005.2
20200710131804 56 225 0.0 1.0 0.00 0.00 0.00 69 1005.2
20200710131305 56 225 0.0 1.0 0.00 0.00 0.00 67 1005.2
20200710130807 56 225 0.0 1.0 0.00 0.00 0.00 68 1005.2
20200710130305 56 225 0.0 1.0 0.00 0.00 0.00 68 1004.9
20200710125806 56 225 0.0 1.0 0.00 0.00 0.00 67 1004.1
20200710125304 56 245 0.0 1.0 0.00 0.00 0.00 67 1004.1
20200710124804 56 315 0.0 1.0 0.00 0.00 0.00 68 1004.1
20200710124305 56 180 0.0 1.0 0.00 0.00 0.00 67 1004.1
20200710123811 56 180 0.0 1.0 0.00 0.00 0.00 66 1004.1
20200710123304 56 180 0.0 1.0 0.00 0.00 0.00 66 1004.1
20200710122805 57 180 0.0 1.0 0.00 0.00 0.00 66 1004.1
20200710122306 56 180 0.0 2.0 0.00 0.00 0.00 66 1004.1
20200710121805 57 180 1.0 2.0 0.00 0.00 0.00 67 1004.1
20200710121304 56 180 1.0 2.0 0.00 0.00 0.00 67 1004.1
20200710120805 56 212 1.0 2.0 0.00 0.00 0.00 68 1004.1
20200710120304 57 213 1.0 2.0 0.00 0.00 0.00 68 1004.1
20200710115805 57 193 1.0 2.0 0.00 0.00 0.00 68 1004.1
20200710115305 57 180 1.0 2.0 0.00 0.00 0.00 68 1004.1
20200710114806 57 180 1.0 2.0 0.00 0.00 0.00 68 1004.1
20200710114305 57 225 1.0 2.0 0.00 0.00 0.00 68 1004.1
20200710113804 57 225 1.0 2.0 0.00 0.00 0.00 68 1004.1
20200710113308 57 180 1.0 2.0 0.00 0.00 0.00 67 1004.1
20200710112807 58 180 1.0 2.0 0.00 0.00 0.00 68 1004.1
20200710112307 58 225 1.0 2.0 0.00 0.00 0.00 68 1004.1
20200710111810 58 225 1.0 2.0 0.00 0.00 0.00 67 1004.1
20200710111308 58 225 1.0 1.0 0.00 0.00 0.00 67 1004.1
20200710110806 58 225 1.0 1.0 0.00 0.00 0.00 66 1004.1
20200710110306 58 225 1.0 1.0 0.00 0.00 0.00 66 1004.1
20200710105809 58 225 0.0 1.0 0.00 0.00 0.00 66 1004.1
20200710105309 58 213 0.0 1.0 0.00 0.00 0.00 66 1004.1
20200710104809 58 180 0.0 1.0 0.00 0.00 0.00 66 1004.1
20200710104314 58 180 0.0 1.0 0.00 0.00 0.00 68 1004.1
20200710103808 58 180 0.0 1.0 0.00 0.00 0.00 68 1004.1
20200710103305 58 225 0.0 1.0 0.00 0.00 0.00 69 1004.1
20200710102807 58 225 1.0 1.0 0.00 0.00 0.00 70 1004.1
20200710102305 58 225 0.0 1.0 0.00 0.00 0.00 69 1004.1
20200710101806 58 225 0.0 1.0 0.00 0.00 0.00 71 1004.1
20200710101305 58 225 0.0 1.0 0.00 0.00 0.00 69 1004.1
20200710100805 59 225 0.0 1.0 0.00 0.00 0.00 72 1004.1
20200710100305 59 225 0.0 1.0 0.00 0.00 0.00 69 1004.1
20200710095806 59 225 0.0 1.0 0.00 0.00 0.00 68 1004.1
20200710095305 59 225 0.0 0.0 0.00 0.00 0.00 63 1004.1
20200710094807 59 225 0.0 0.0 0.00 0.00 0.00 66 1004.1
20200710094305 59 225 0.0 0.0 0.00 0.00 0.00 65 1004.1
20200710093805 60 237 0.0 0.0 0.00 0.00 0.00 65 1004.1
20200710093305 60 258 0.0 0.0 0.00 0.00 0.00 61 1004.1
20200710092804 60 247 0.0 0.0 0.00 0.00 0.00 60 1004.1
20200710092306 60 315 0.0 0.0 0.00 0.00 0.00 58 1004.1
20200710091805 60 315 0.0 0.0 0.00 0.00 0.00 58 1004.1
20200710091305 60 315 0.0 0.0 0.00 0.00 0.00 58 1004.1
20200710090804 61 315 0.0 0.0 0.00 0.00 0.00 58 1004.1
20200710090305 61 315 0.0 0.0 0.00 0.00 0.00 58 1004.1
20200710085807 61 315 0.0 0.0 0.00 0.00 0.00 57 1004.1
20200710085307 61 315 0.0 0.0 0.00 0.00 0.00 57 1004.1
20200710084805 61 315 0.0 0.0 0.00 0.00 0.00 56 1004.1
20200710084305 62 315 0.0 0.0 0.00 0.00 0.00 56 1004.1
20200710083805 62 315 0.0 0.0 0.00 0.00 0.00 56 1004.1
20200710083309 62 315 0.0 0.0 0.00 0.00 0.00 55 1004.1
20200710082804 62 315 0.0 0.0 0.00 0.00 0.00 55 1004.1
20200710082305 62 315 0.0 0.0 0.00 0.00 0.00 55 1004.1
20200710081812 63 315 0.0 0.0 0.00 0.00 0.00 54 1004.1
20200710081304 63 315 0.0 0.0 0.00 0.00 0.00 54 1004.1
20200710080805 63 315 0.0 0.0 0.00 0.00 0.00 53 1004.1
20200710080305 64 315 0.0 0.0 0.00 0.00 0.00 52 1004.1
20200710075805 64 315 0.0 0.0 0.00 0.00 0.00 52 1004.1
20200710075304 64 315 0.0 0.0 0.00 0.00 0.00 51 1004.1
20200710074805 64 315 0.0 0.0 0.00 0.00 0.00 51 1004.1
20200710074305 65 315 0.0 0.0 0.00 0.00 0.00 51 1004.1
20200710073804 65 135 0.0 0.0 0.00 0.00 0.00 51 1004.1
20200710073305 65 135 0.0 0.0 0.00 0.00 0.00 50 1004.1
20200710072805 65 135 0.0 1.0 0.00 0.00 0.00 50 1004.1
20200710072304 66 0 0.0 1.0 0.00 0.00 0.00 50 1004.1
20200710071808 66 192 0.0 1.0 0.00 0.00 0.00 50 1004.1
20200710071305 66 225 0.0 1.0 0.00 0.00 0.00 49 1004.1
20200710070805 66 180 0.0 1.0 0.00 0.00 0.00 49 1004.1
20200710070304 66 180 0.0 1.0 0.00 0.00 0.00 49 1004.1
20200710065807 67 180 0.0 1.0 0.00 0.00 0.00 48 1003.1
20200710065304 67 225 0.0 1.0 0.00 0.00 0.00 48 1003.1
20200710064805 67 192 0.0 1.0 0.00 0.00 0.00 48 1003.1
20200710064304 67 202 0.0 1.0 0.00 0.00 0.00 47 1003.1
20200710063805 67 315 0.0 1.0 0.00 0.00 0.00 47 1003.1
20200710063313 67 315 0.0 1.0 0.00 0.00 0.00 47 1003.1
20200710062805 67 180 0.0 1.0 0.00 0.00 0.00 46 1003.1
20200710062304 68 180 0.0 0.0 0.00 0.00 0.00 46 1003.1
20200710061805 68 180 0.0 0.0 0.00 0.00 0.00 46 1003.1
20200710061305 68 180 0.0 1.0 0.00 0.00 0.00 45 1003.1
20200710060804 68 180 0.0 1.0 0.00 0.00 0.00 45 1003.1
20200710060307 69 180 0.0 1.0 0.00 0.00 0.00 44 1003.1
20200710055805 69 180 0.0 0.0 0.00 0.00 0.00 44 1003.1
20200710055305 69 180 0.0 0.0 0.00 0.00 0.00 44 1003.1
20200710054805 70 180 0.0 0.0 0.00 0.00 0.00 44 1003.1
20200710054308 70 0 0.0 0.0 0.00 0.00 0.00 44 1003.1
20200710053805 70 0 0.0 1.0 0.00 0.00 0.00 43 1003.1
20200710053304 70 180 0.0 1.0 0.00 0.00 0.00 42 1003.1
20200710052804 71 192 0.0 1.0 0.00 0.00 0.00 42 1003.1
20200710052304 71 225 0.0 1.0 0.00 0.00 0.00 42 1003.1
20200710051805 71 225 0.0 1.0 0.00 0.00 0.00 41 1003.1
20200710051305 72 225 0.0 1.0 0.00 0.00 0.00 41 1003.1
20200710050809 72 225 0.0 1.0 0.00 0.00 0.00 40 1003.1
20200710050308 72 225 0.0 1.0 0.00 0.00 0.00 40 1003.1
20200710045805 73 180 0.0 1.0 0.00 0.00 0.00 40 1003.1
20200710045307 73 180 0.0 1.0 0.00 0.00 0.00 40 1003.1
20200710044804 73 180 0.0 1.0 0.00 0.00 0.00 40 1003.1
20200710044305 73 188 0.0 1.0 0.00 0.00 0.00 39 1002.1
20200710043806 74 225 1.0 1.0 0.00 0.00 0.00 39 1002.1
20200710043307 74 180 0.0 1.0 0.00 0.00 0.00 39 1002.1
20200710042806 74 180 0.0 1.0 0.00 0.00 0.00 39 1002.1
20200710042316 75 180 0.0 1.0 0.00 0.00 0.00 38 1002.1
20200710041806 75 180 0.0 2.0 0.00 0.00 0.00 38 1002.1
20200710041304 75 180 0.0 2.0 0.00 0.00 0.00 38 1002.1
20200710040807 76 180 1.0 2.0 0.00 0.00 0.00 38 1002.1
20200710040305 76 225 1.0 2.0 0.00 0.00 0.00 37 1002.1
20200710035806 76 225 1.0 2.0 0.00 0.00 0.00 36 1002.1
20200710035314 77 225 1.0 2.0 0.00 0.00 0.00 35 1002.1
20200710034806 77 225 1.0 2.0 0.00 0.00 0.00 34 1002.1
20200710034304 78 225 1.0 3.0 0.00 0.00 0.00 34 1002.1
20200710033805 78 192 1.0 3.0 0.00 0.00 0.00 34 1002.1
20200710033305 78 192 2.0 3.0 0.00 0.00 0.00 34 1002.1
20200710032804 78 180 2.0 3.0 0.00 0.00 0.00 34 1002.1
20200710032309 79 180 1.0 3.0 0.00 0.00 0.00 33 1002.1
20200710031805 80 180 1.0 2.0 0.00 0.00 0.00 32 1002.1
20200710031304 80 180 1.0 2.0 0.00 0.00 0.00 31 1002.1
20200710030807 80 180 1.0 2.0 0.00 0.00 0.00 30 1002.1
20200710030305 81 225 2.0 3.0 0.00 0.00 0.00 30 1002.1
20200710025805 81 180 2.0 3.0 0.00 0.00 0.00 30 1002.1
20200710025305 82 180 2.0 3.0 0.00 0.00 0.00 29 1002.1
20200710024805 83 225 2.0 5.0 0.00 0.00 0.00 29 1001.8
20200710024305 83 180 2.0 5.0 0.00 0.00 0.00 29 1001.1
20200710023805 84 180 2.0 5.0 0.00 0.00 0.00 29 1001.1
20200710023304 84 225 1.0 3.0 0.00 0.00 0.00 28 1001.1
20200710022805 84 225 1.0 2.0 0.00 0.00 0.00 28 1001.1
20200710022305 85 180 1.0 3.0 0.00 0.00 0.00 28 1001.1
20200710021809 85 180 1.0 3.0 0.00 0.00 0.00 28 1001.1
20200710021308 85 225 1.0 5.0 0.00 0.00 0.00 28 1001.1
20200710020807 85 213 2.0 5.0 0.00 0.00 0.00 27 1001.1
20200710020305 85 180 2.0 5.0 0.00 0.00 0.00 26 1001.1
20200710015804 85 225 2.0 3.0 0.00 0.00 0.00 27 1001.1
20200710015304 86 225 2.0 3.0 0.00 0.00 0.00 26 1001.1
20200710014804 86 180 2.0 5.0 0.00 0.00 0.00 26 1001.1
20200710014305 86 225 2.0 5.0 0.00 0.00 0.00 25 1001.1
20200710013805 86 180 2.0 5.0 0.00 0.00 0.00 27 1001.1
20200710013305 86 180 2.0 5.0 0.00 0.00 0.00 29 1001.1
20200710012804 86 180 2.0 5.0 0.00 0.00 0.00 29 1001.1
20200710012306 87 180 2.0 5.0 0.00 0.00 0.00 28 1001.1
20200710011805 86 180 2.0 5.0 0.00 0.00 0.00 28 1001.1
20200710011305 86 180 3.0 5.0 0.00 0.00 0.00 28 1001.1
20200710010805 87 180 3.0 5.0 0.00 0.00 0.00 28 1001.1
20200710010307 87 180 2.0 3.0 0.00 0.00 0.00 29 1001.1
20200710005807 87 180 2.0 3.0 0.00 0.00 0.00 30 1001.1
20200710005305 87 180 2.0 3.0 0.00 0.00 0.00 30 1001.1
20200710004804 87 180 2.0 3.0 0.00 0.00 0.00 30 1001.1
20200710004305 87 180 2.0 5.0 0.00 0.00 0.00 29 1001.1
20200710003804 88 180 2.0 5.0 0.00 0.00 0.00 30 1001.1
20200710003305 88 180 2.0 5.0 0.00 0.00 0.00 29 1001.1
20200710002810 88 180 2.0 5.0 0.00 0.00 0.00 28 1001.1
20200710002325 88 180 3.0 5.0 0.00 0.00 0.00 27 1001.1
20200710001805 88 180 3.0 5.0 0.00 0.00 0.00 26 1001.1
20200710001305 88 180 2.0 5.0 0.00 0.00 0.00 26 1001.1
20200710000804 88 180 3.0 5.0 0.00 0.00 0.00 25 1001.1
20200710000304 89 180 2.0 5.0 0.00 0.00 0.00 24 1001.1
20200709235804 89 180 2.0 5.0 0.00 0.00 0.00 23 1001.1
20200709235305 89 180 2.0 5.0 0.00 0.00 0.00 23 1001.1
20200709234805 89 180 2.0 3.0 0.00 0.00 0.00 24 1001.1
20200709234305 89 180 2.0 3.0 0.00 0.00 0.00 24 1001.1
20200709233806 89 180 2.0 5.0 0.00 0.00 0.00 24 1001.1
20200709233304 89 180 2.0 5.0 0.00 0.00 0.00 24 1001.1
20200709232804 90 225 2.0 5.0 0.00 0.00 0.00 23 1001.1
20200709232304 90 180 2.0 5.0 0.00 0.00 0.00 23 1001.1
20200709231804 89 180 2.0 3.0 0.00 0.00 0.00 23 1001.1
20200709231305 89 180 2.0 3.0 0.00 0.00 0.00 24 1001.1
20200709230805 89 192 2.0 3.0 0.00 0.00 0.00 25 1001.1
20200709230307 89 225 2.0 5.0 0.00 0.00 0.00 25 1001.1
20200709225805 89 180 2.0 5.0 0.00 0.00 0.00 25 1001.1
20200709225304 89 180 2.0 5.0 0.00 0.00 0.00 24 1001.1